Overview Statistics Trail Chart Weather Telemetry Raw packets
 

This is the latest recevied weather packets stored in our database for station/object KC3ROB-13. If no packets are shown the sender has not sent any weather packets the latest 10 day(s).

<< 18 19 20 21 22 23 24 >>
Time Temp. Humidity Pressure Rain* Wind** Luminosity Snow
1777822268 10.56° C 100% 1008.5 hPa 0 mm - - -
1777821666 10.56° C 100% 1008.5 hPa 0 mm - - -
1777821065 11.11° C 100% 1008.1 hPa 0 mm - - -
1777820477 10.56° C 100% 1008.5 hPa 0 mm - - -
1777819866 10° C 100% 1008.5 hPa 0 mm - - -
1777819264 10.56° C 100% 1008.5 hPa 0 mm - - -
1777818676 10° C 100% 1008.5 hPa 0 mm - - -
1777818062 10° C 100% 1008.5 hPa 0 mm - - -
1777817463 10° C 100% 1008.5 hPa 0 mm - - -
1777816874 10.56° C 100% 1008.1 hPa 0 mm - - -
1777816267 10° C 100% 1008.1 hPa 0 mm - - -
1777815668 10° C 100% 1008.1 hPa 0 mm - - -
1777815068 10° C 100% 1008.1 hPa 0 mm - - -
1777814467 9.44° C 100% 1008.1 hPa 0 mm - - -
1777813865 9.44° C 100% 1008.1 hPa 0 mm - - -
1777813270 8.89° C 100% 1008.1 hPa 0 mm - - -
1777812662 8.89° C 100% 1007.8 hPa 0 mm - - -
1777812064 8.33° C 100% 1007.8 hPa 0 mm - - -
1777811474 7.78° C 100% 1007.8 hPa 0 mm - - -
1777810868 8.33° C 100% 1007.8 hPa 0 mm - - -
1777810263 8.33° C 100% 1007.8 hPa 0 mm - - -
1777809672 8.33° C 100% 1007.5 hPa 0 mm - - -
1777809064 7.78° C 100% 1007.8 hPa 0 mm - - -
1777808463 7.78° C 100% 1007.5 hPa 0 mm - - -
1777807865 7.22° C 100% 1007.1 hPa 0 mm - - -

* Rain latest hour (hover to see other rain measurements)
** Current wind speed in m/s (hover to see current wind gust speed)